| time (UTC) | temp F | wind direction | speed MPH | gust MPH | rain 1hr in | rain 24hr in | rain mn in | humidity % | barometer mb |
| 20260506175314 | 65 | 223 | 6.0 | 10.0 | 0.00 | 0.16 | 0.16 | 85 | 1006.4 |
| 20260506174314 | 66 | 202 | 6.0 | 11.0 | 0.00 | 0.16 | 0.16 | 85 | 1006.5 |
| 20260506173322 | 65 | 172 | 6.0 | 11.0 | 0.00 | 0.16 | 0.16 | 84 | 1006.3 |
| 20260506172315 | 65 | 181 | 5.0 | 9.0 | 0.00 | 0.16 | 0.16 | 84 | 1006.2 |
| 20260506171318 | 65 | 147 | 5.0 | 12.0 | 0.00 | 0.16 | 0.16 | 83 | 1006.1 |
| 20260506170324 | 65 | 168 | 4.0 | 11.0 | 0.00 | 0.16 | 0.16 | 83 | 1006.2 |
| 20260506165336 | 65 | 178 | 6.0 | 11.0 | 0.00 | 0.16 | 0.16 | 83 | 1006.2 |
| 20260506164316 | 65 | 202 | 6.0 | 12.0 | 0.00 | 0.16 | 0.16 | 82 | 1006.2 |
| 20260506163339 | 65 | 151 | 4.0 | 14.0 | 0.00 | 0.16 | 0.16 | 84 | 1006.2 |
| 20260506162338 | 65 | 221 | 7.0 | 14.0 | 0.00 | 0.16 | 0.16 | 83 | 1006.3 |
| 20260506161349 | 65 | 145 | 7.0 | 12.0 | 0.00 | 0.16 | 0.16 | 85 | 1006.2 |
| 20260506160312 | 64 | 136 | 8.0 | 12.0 | 0.00 | 0.16 | 0.16 | 86 | 1006.2 |
| 20260506155338 | 64 | 150 | 9.0 | 20.0 | 0.00 | 0.16 | 0.16 | 86 | 1006.3 |
| 20260506154314 | 63 | 192 | 7.0 | 16.0 | 0.01 | 0.16 | 0.16 | 87 | 1006.5 |
| 20260506153339 | 64 | 197 | 8.0 | 16.0 | 0.01 | 0.16 | 0.16 | 88 | 1006.4 |
| 20260506152316 | 63 | 217 | 7.0 | 12.0 | 0.02 | 0.16 | 0.16 | 89 | 1006.2 |
| 20260506151327 | 64 | 165 | 6.0 | 15.0 | 0.02 | 0.16 | 0.16 | 91 | 1006.2 |
| 20260506150330 | 63 | 207 | 9.0 | 18.0 | 0.03 | 0.16 | 0.16 | 91 | 1006.2 |
| 20260506145338 | 62 | 159 | 5.0 | 11.0 | 0.04 | 0.16 | 0.16 | 92 | 1006.4 |
| 20260506144312 | 61 | 171 | 7.0 | 14.0 | 0.03 | 0.15 | 0.15 | 91 | 1006.3 |
| 20260506143314 | 61 | 163 | 7.0 | 13.0 | 0.04 | 0.15 | 0.15 | 91 | 1006.4 |
| 20260506142357 | 61 | 140 | 5.0 | 10.0 | 0.04 | 0.14 | 0.14 | 91 | 1006.8 |
| 20260506141313 | 61 | 184 | 7.0 | 18.0 | 0.06 | 0.14 | 0.14 | 90 | 1007.0 |
| 20260506140333 | 61 | 146 | 7.0 | 16.0 | 0.05 | 0.13 | 0.13 | 90 | 1007.0 |
| 20260506135327 | 61 | 173 | 6.0 | 14.0 | 0.04 | 0.12 | 0.12 | 90 | 1006.9 |
| 20260506134355 | 61 | 222 | 7.0 | 15.0 | 0.06 | 0.12 | 0.12 | 90 | 1006.8 |
| 20260506133337 | 61 | 169 | 9.0 | 14.0 | 0.06 | 0.11 | 0.11 | 90 | 1006.7 |
| 20260506132355 | 61 | 136 | 7.0 | 14.0 | 0.05 | 0.10 | 0.10 | 89 | 1006.7 |
| 20260506131313 | 61 | 175 | 10.0 | 15.0 | 0.03 | 0.08 | 0.08 | 89 | 1006.8 |
| 20260506130330 | 61 | 164 | 8.0 | 14.0 | 0.04 | 0.08 | 0.08 | 89 | 1006.9 |
| 20260506125332 | 61 | 153 | 7.0 | 11.0 | 0.05 | 0.08 | 0.08 | 88 | 1006.9 |
| 20260506124333 | 61 | 208 | 8.0 | 17.0 | 0.04 | 0.06 | 0.06 | 87 | 1006.9 |
| 20260506123330 | 61 | 171 | 6.0 | 14.0 | 0.03 | 0.05 | 0.05 | 87 | 1006.8 |
| 20260506122316 | 61 | 188 | 7.0 | 14.0 | 0.04 | 0.05 | 0.05 | 86 | 1006.8 |
| 20260506121338 | 61 | 132 | 9.0 | 16.0 | 0.04 | 0.05 | 0.05 | 86 | 1006.9 |
| 20260506120314 | 61 | 128 | 7.0 | 17.0 | 0.04 | 0.04 | 0.04 | 85 | 1007.1 |
| 20260506115336 | 61 | 148 | 7.0 | 11.0 | 0.03 | 0.03 | 0.03 | 84 | 1007.1 |
| 20260506114312 | 62 | 190 | 6.0 | 15.0 | 0.02 | 0.02 | 0.02 | 82 | 1007.3 |
| 20260506113335 | 62 | 121 | 8.0 | 15.0 | 0.02 | 0.02 | 0.02 | 81 | 1007.1 |
| 20260506112337 | 62 | 123 | 6.0 | 11.0 | 0.01 | 0.01 | 0.01 | 79 | 1007.2 |
| 20260506111315 | 63 | 151 | 7.0 | 12.0 | 0.00 | 0.00 | 0.00 | 77 | 1007.2 |
| 20260506110316 | 64 | 178 | 5.0 | 10.0 | 0.00 | 0.00 | 0.00 | 74 | 1006.9 |
| 20260506105338 | 64 | 107 | 7.0 | 12.0 | 0.00 | 0.00 | 0.00 | 73 | 1006.8 |
| 20260506104335 | 64 | 204 | 8.0 | 14.0 | 0.00 | 0.00 | 0.00 | 71 | 1006.6 |
| 20260506103333 | 64 | 162 | 7.0 | 15.0 | 0.00 | 0.00 | 0.00 | 70 | 1006.4 |
| 20260506102336 | 64 | 148 | 7.0 | 17.0 | 0.00 | 0.00 | 0.00 | 69 | 1006.4 |
| 20260506101339 | 65 | 184 | 8.0 | 14.0 | 0.00 | 0.00 | 0.00 | 68 | 1006.1 |
| 20260506100331 | 66 | 145 | 7.0 | 14.0 | 0.00 | 0.00 | 0.00 | 66 | 1006.0 |
| 20260506095345 | 66 | 173 | 8.0 | 16.0 | 0.00 | 0.00 | 0.00 | 63 | 1006.0 |
| 20260506094331 | 66 | 147 | 8.0 | 15.0 | 0.00 | 0.00 | 0.00 | 62 | 1005.9 |
| 20260506093311 | 66 | 160 | 8.0 | 14.0 | 0.00 | 0.00 | 0.00 | 61 | 1005.9 |
| 20260506092336 | 66 | 132 | 7.0 | 13.0 | 0.00 | 0.00 | 0.00 | 60 | 1006.0 |
| 20260506091312 | 67 | 146 | 7.0 | 12.0 | 0.00 | 0.00 | 0.00 | 60 | 1006.1 |
| 20260506090314 | 67 | 107 | 8.0 | 15.0 | 0.00 | 0.00 | 0.00 | 59 | 1006.1 |
| 20260506085314 | 67 | 192 | 10.0 | 15.0 | 0.00 | 0.00 | 0.00 | 59 | 1006.1 |
| 20260506084334 | 67 | 157 | 6.0 | 16.0 | 0.00 | 0.00 | 0.00 | 59 | 1006.3 |
| 20260506083401 | 67 | 177 | 7.0 | 14.0 | 0.00 | 0.00 | 0.00 | 60 | 1006.3 |
| 20260506082320 | 67 | 180 | 9.0 | 15.0 | 0.00 | 0.00 | 0.00 | 59 | 1006.4 |
| 20260506081320 | 67 | 243 | 6.0 | 15.0 | 0.00 | 0.00 | 0.00 | 59 | 1006.4 |
| 20260506080320 | 67 | 142 | 7.0 | 16.0 | 0.00 | 0.00 | 0.00 | 59 | 1006.3 |
| 20260506073340 | 67 | 148 | 6.0 | 14.0 | 0.00 | 0.00 | 0.00 | 56 | 1006.2 |
| 20260506072341 | 67 | 171 | 5.0 | 14.0 | 0.00 | 0.00 | 0.00 | 55 | 1006.3 |
| 20260506071317 | 68 | 232 | 6.0 | 12.0 | 0.00 | 0.00 | 0.00 | 53 | 1006.4 |
| 20260506070319 | 69 | 155 | 8.0 | 15.0 | 0.00 | 0.00 | 0.00 | 52 | 1006.4 |
| 20260506062342 | 69 | 142 | 7.0 | 17.0 | 0.00 | 0.00 | 0.00 | 49 | 1006.9 |
| 20260506061317 | 70 | 147 | 8.0 | 15.0 | 0.00 | 0.00 | 0.00 | 48 | 1007.0 |
| 20260506060318 | 70 | 205 | 8.0 | 12.0 | 0.00 | 0.00 | 0.00 | 48 | 1007.1 |
| 20260506051318 | 70 | 213 | 8.0 | 13.0 | 0.00 | 0.00 | 0.00 | 45 | 1007.5 |
| 20260506050318 | 70 | 149 | 6.0 | 17.0 | 0.00 | 0.00 | 0.00 | 45 | 1007.7 |
| 20260506044326 | 70 | 154 | 6.0 | 15.0 | 0.00 | 0.00 | 0.00 | 45 | 1007.7 |
| 20260506043325 | 70 | 196 | 7.0 | 11.0 | 0.00 | 0.00 | 0.00 | 45 | 1007.7 |
| 20260506042332 | 70 | 190 | 6.0 | 11.0 | 0.00 | 0.00 | 0.00 | 45 | 1007.6 |
| 20260506041315 | 70 | 180 | 8.0 | 14.0 | 0.00 | 0.00 | 0.00 | 44 | 1007.6 |
| 20260506040317 | 71 | 196 | 5.0 | 12.0 | 0.00 | 0.00 | 0.00 | 44 | 1007.6 |
| 20260506035319 | 71 | 213 | 5.0 | 9.0 | 0.00 | 0.00 | 0.00 | 43 | 1007.5 |
| 20260506034336 | 71 | 162 | 5.0 | 11.0 | 0.00 | 0.00 | 0.00 | 43 | 1007.5 |
| 20260506033325 | 71 | 128 | 6.0 | 13.0 | 0.00 | 0.00 | 0.00 | 42 | 1007.6 |
| 20260506032338 | 71 | 136 | 6.0 | 13.0 | 0.00 | 0.00 | 0.00 | 41 | 1007.5 |
| 20260506031340 | 71 | 221 | 7.0 | 15.0 | 0.00 | 0.00 | 0.00 | 41 | 1007.5 |
| 20260506030333 | 71 | 188 | 7.0 | 15.0 | 0.00 | 0.00 | 0.00 | 41 | 1007.5 |
| 20260506025341 | 71 | 165 | 6.0 | 12.0 | 0.00 | 0.00 | 0.00 | 40 | 1007.5 |
| 20260506024318 | 71 | 171 | 7.0 | 13.0 | 0.00 | 0.00 | 0.00 | 40 | 1007.5 |
| 20260506023316 | 71 | 206 | 6.0 | 14.0 | 0.00 | 0.00 | 0.00 | 38 | 1007.6 |
| 20260506022315 | 71 | 198 | 6.0 | 14.0 | 0.00 | 0.00 | 0.00 | 38 | 1007.5 |
| 20260506021340 | 72 | 173 | 6.0 | 15.0 | 0.00 | 0.00 | 0.00 | 38 | 1007.6 |
| 20260506020338 | 72 | 217 | 7.0 | 11.0 | 0.00 | 0.00 | 0.00 | 37 | 1007.6 |
| 20260506015320 | 72 | 173 | 6.0 | 15.0 | 0.00 | 0.00 | 0.00 | 36 | 1007.6 |
| 20260506014315 | 73 | 189 | 5.0 | 12.0 | 0.00 | 0.00 | 0.00 | 35 | 1007.5 |
| 20260506013339 | 73 | 171 | 7.0 | 16.0 | 0.00 | 0.00 | 0.00 | 35 | 1007.4 |
| 20260506011400 | 73 | 192 | 5.0 | 10.0 | 0.00 | 0.00 | 0.00 | 35 | 1007.1 |
| 20260506010339 | 73 | 183 | 6.0 | 13.0 | 0.00 | 0.00 | 0.00 | 35 | 1007.0 |
| 20260506005314 | 74 | 188 | 6.0 | 11.0 | 0.00 | 0.00 | 0.00 | 34 | 1006.9 |
| 20260506004319 | 74 | 162 | 6.0 | 11.0 | 0.00 | 0.00 | 0.00 | 34 | 1006.9 |
| 20260506003337 | 74 | 130 | 7.0 | 14.0 | 0.00 | 0.00 | 0.00 | 33 | 1006.7 |
| 20260506002333 | 75 | 186 | 9.0 | 14.0 | 0.00 | 0.00 | 0.00 | 33 | 1006.7 |
| 20260506001332 | 75 | 200 | 8.0 | 14.0 | 0.00 | 0.00 | 0.00 | 34 | 1006.5 |
| 20260506000334 | 75 | 174 | 6.0 | 11.0 | 0.00 | 0.00 | 0.00 | 35 | 1006.4 |
| 20260505235339 | 76 | 180 | 6.0 | 13.0 | 0.00 | 0.00 | 0.00 | 35 | 1006.3 |
| 20260505234337 | 76 | 181 | 7.0 | 14.0 | 0.00 | 0.00 | 0.00 | 34 | 1006.3 |
| 20260505233359 | 77 | 178 | 7.0 | 15.0 | 0.00 | 0.00 | 0.00 | 34 | 1006.4 |
| 20260505232350 | 77 | 215 | 7.0 | 14.0 | 0.00 | 0.00 | 0.00 | 34 | 1006.3 |
| 20260505231317 | 77 | 164 | 7.0 | 15.0 | 0.00 | 0.00 | 0.00 | 34 | 1006.3 |
| 20260505230340 | 78 | 185 | 6.0 | 15.0 | 0.00 | 0.00 | 0.00 | 33 | 1006.2 |
| 20260505225319 | 78 | 205 | 7.0 | 15.0 | 0.00 | 0.00 | 0.00 | 34 | 1006.1 |
| 20260505224315 | 79 | 199 | 8.0 | 17.0 | 0.00 | 0.00 | 0.00 | 33 | 1006.3 |
| 20260505223339 | 79 | 135 | 10.0 | 17.0 | 0.00 | 0.00 | 0.00 | 34 | 1006.2 |
| 20260505222335 | 79 | 197 | 8.0 | 18.0 | 0.00 | 0.00 | 0.00 | 34 | 1006.4 |
| 20260505221317 | 79 | 146 | 7.0 | 21.0 | 0.00 | 0.00 | 0.00 | 34 | 1006.2 |
| 20260505220333 | 79 | 161 | 8.0 | 17.0 | 0.00 | 0.00 | 0.00 | 34 | 1006.3 |
| 20260505215314 | 79 | 132 | 10.0 | 19.0 | 0.00 | 0.00 | 0.00 | 33 | 1006.3 |
| 20260505214317 | 79 | 248 | 8.0 | 21.0 | 0.00 | 0.00 | 0.00 | 34 | 1006.4 |
| 20260505213339 | 79 | 206 | 9.0 | 22.0 | 0.00 | 0.00 | 0.00 | 34 | 1006.4 |
| 20260505212314 | 80 | 196 | 8.0 | 18.0 | 0.00 | 0.00 | 0.00 | 35 | 1006.2 |
| 20260505211329 | 81 | 169 | 11.0 | 22.0 | 0.00 | 0.00 | 0.00 | 34 | 1006.1 |
| 20260505210353 | 83 | 200 | 7.0 | 20.0 | 0.00 | 0.00 | 0.00 | 36 | 1006.1 |
| 20260505205356 | 83 | 220 | 6.0 | 17.0 | 0.00 | 0.00 | 0.00 | 35 | 1006.1 |
| 20260505204319 | 83 | 250 | 10.0 | 21.0 | 0.00 | 0.00 | 0.00 | 32 | 1006.1 |
| 20260505203353 | 83 | 222 | 11.0 | 22.0 | 0.00 | 0.00 | 0.00 | 28 | 1006.2 |
| 20260505202318 | 84 | 202 | 11.0 | 24.0 | 0.00 | 0.00 | 0.00 | 28 | 1006.1 |
| 20260505201339 | 84 | 219 | 10.0 | 17.0 | 0.00 | 0.00 | 0.00 | 28 | 1006.1 |
| 20260505200336 | 84 | 219 | 13.0 | 22.0 | 0.00 | 0.00 | 0.00 | 28 | 1006.3 |
| 20260505195317 | 85 | 209 | 11.0 | 17.0 | 0.00 | 0.00 | 0.00 | 28 | 1006.4 |
| 20260505194339 | 84 | 180 | 9.0 | 22.0 | 0.00 | 0.00 | 0.00 | 28 | 1006.4 |
| 20260505193315 | 85 | 211 | 8.0 | 16.0 | 0.00 | 0.00 | 0.00 | 34 | 1006.5 |
| 20260505192314 | 83 | 177 | 9.0 | 16.0 | 0.00 | 0.00 | 0.00 | 37 | 1006.5 |
| 20260505191337 | 83 | 185 | 7.0 | 18.0 | 0.00 | 0.00 | 0.00 | 34 | 1006.8 |
| 20260505190401 | 84 | 229 | 9.0 | 16.0 | 0.00 | 0.00 | 0.00 | 34 | 1007.0 |
| 20260505185338 | 84 | 233 | 9.0 | 18.0 | 0.00 | 0.00 | 0.00 | 33 | 1007.1 |
| 20260505184339 | 83 | 195 | 8.0 | 18.0 | 0.00 | 0.00 | 0.00 | 33 | 1007.2 |
| 20260505183314 | 83 | 187 | 8.0 | 25.0 | 0.00 | 0.00 | 0.00 | 33 | 1007.3 |
| 20260505182317 | 83 | 195 | 10.0 | 20.0 | 0.00 | 0.00 | 0.00 | 33 | 1007.4 |
| 20260505181328 | 83 | 180 | 9.0 | 20.0 | 0.00 | 0.00 | 0.00 | 33 | 1007.6 |
| 20260505180337 | 82 | 248 | 10.0 | 22.0 | 0.00 | 0.00 | 0.00 | 34 | 1007.7 |